Voltar ao catálogo

FENGYUN 1C DEB

AtivoPO
NORAD 32150·DEBRIS·🇨🇳 China

Lançado May 10, 1999 de Taiyuan Satellite Launch Center

Loading…

Próximas Passagens (próximas 24 horas)

TLE

AtualizadoSource: Space-Track

Época: Sep 13, 2026, 08:59 UTC

1 32150U 99025CSU 26256.37439638  .00000434  00000-0  83803-4 0  9997
2 32150  99.1602 313.9524 0168958 313.5471  45.1796 14.61201039 16958

Acompanhe FENGYUN 1C DEB em tempo real com AllMySat

Download on the App Store